CW9825 Weather Reports


Display with metric or nautical units.
time (UTC)temp
F
wind
direction
speed
MPH
gust
MPH
rain 1hr
in
rain 24hr
in
rain mn
in
humidity
%
barometer
mb
20260906040037 75 81 4.0 11.0 0.00 0.00 0.00 85 1015.4
20260906035539 75 92 3.0 9.0 0.00 0.00 0.00 84 1015.3
20260906035034 76 94 4.0 9.0 0.00 0.00 0.00 84 1015.5
20260906034538 76 90 1.0 6.0 0.00 0.00 0.00 84 1015.6
20260906034034 76 78 1.0 6.0 0.00 0.00 0.00 84 1015.7
20260906033534 76 89 2.0 8.0 0.00 0.00 0.00 84 1015.8
20260906033033 76 49 2.0 8.0 0.00 0.00 0.00 84 1015.8
20260906032534 76 91 3.0 6.0 0.00 0.00 0.00 84 1015.7
20260906032033 76 98 1.0 6.0 0.00 0.00 0.00 84 1015.7
20260906031539 76 86 2.0 6.0 0.00 0.00 0.00 84 1015.8
20260906031033 76 63 2.0 6.0 0.00 0.00 0.00 84 1015.8
20260906030535 76 93 3.0 6.0 0.00 0.00 0.00 84 1016.0
20260906030033 76 67 1.0 6.0 0.00 0.00 0.00 84 1015.9
20260906025532 76 80 2.0 6.0 0.00 0.00 0.00 84 1015.9
20260906025032 76 95 1.0 4.0 0.00 0.00 0.00 83 1016.0
20260906024531 76 78 1.0 4.0 0.00 0.00 0.00 83 1015.9
20260906024031 76 123 0.0 5.0 0.00 0.00 0.00 83 1015.8
20260906023531 76 90 1.0 5.0 0.00 0.00 0.00 83 1015.6
20260906023031 76 142 2.0 6.0 0.00 0.00 0.00 83 1015.4
20260906022532 76 125 1.0 4.0 0.00 0.00 0.00 83 1015.3
20260906022030 76 123 1.0 4.0 0.00 0.00 0.00 82 1015.3
20260906021530 76 61 1.0 5.0 0.00 0.00 0.00 82 1015.3
20260906021030 77 109 2.0 5.0 0.00 0.00 0.00 81 1015.2
20260906020530 77 125 2.0 6.0 0.00 0.00 0.00 81 1015.1
20260906020030 77 153 2.0 5.0 0.00 0.00 0.00 81 1014.9
20260906015530 77 147 2.0 7.0 0.00 0.00 0.00 80 1014.8
20260906015029 77 85 3.0 8.0 0.00 0.00 0.00 80 1014.7
20260906014530 77 118 3.0 8.0 0.00 0.00 0.00 80 1014.7
20260906014028 78 111 3.0 7.0 0.00 0.00 0.00 79 1014.8
20260906013528 78 119 2.0 7.0 0.00 0.00 0.00 78 1014.8
20260906013042 78 102 3.0 8.0 0.00 0.00 0.00 78 1014.7
20260906012529 78 138 4.0 8.0 0.00 0.00 0.00 78 1014.8
20260906012028 78 89 2.0 6.0 0.00 0.00 0.00 77 1014.7
20260906011528 79 146 2.0 6.0 0.00 0.00 0.00 76 1014.6
20260906011030 79 113 3.0 6.0 0.00 0.00 0.00 76 1014.6
20260906010528 79 115 3.0 7.0 0.00 0.00 0.00 75 1014.6
20260906010030 79 125 2.0 7.0 0.00 0.00 0.00 75 1014.7
20260906005527 80 142 1.0 6.0 0.00 0.00 0.00 74 1014.8
20260906005027 80 101 1.0 6.0 0.00 0.00 0.00 73 1014.9
20260906004527 80 62 1.0 7.0 0.00 0.00 0.00 73 1014.9
20260906004026 80 137 1.0 10.0 0.00 0.00 0.00 72 1014.9
20260906003526 81 159 4.0 10.0 0.00 0.00 0.00 71 1014.7
20260906003027 81 136 4.0 10.0 0.00 0.00 0.00 71 1014.5
20260906002526 81 164 5.0 12.0 0.00 0.00 0.00 71 1014.6
20260906002026 81 143 5.0 12.0 0.00 0.00 0.00 70 1014.6
20260906001527 82 162 4.0 12.0 0.00 0.00 0.00 70 1014.6
20260906001026 82 139 4.0 10.0 0.00 0.00 0.00 69 1014.6
20260906000526 82 167 6.0 11.0 0.00 0.00 0.00 69 1014.6
20260906000026 83 165 4.0 15.0 0.00 0.00 0.00 68 1014.4
20260905235526 83 85 5.0 15.0 0.00 0.00 0.00 68 1014.1
20260905235026 83 141 6.0 14.0 0.00 0.00 0.00 68 1013.9
20260905234524 83 103 4.0 14.0 0.00 0.00 0.00 68 1013.7
20260905234025 84 64 5.0 14.0 0.00 0.00 0.00 67 1013.5
20260905233526 84 113 6.0 14.0 0.00 0.00 0.00 67 1013.5
20260905233026 84 53 6.0 12.0 0.00 0.00 0.00 67 1013.4
20260905232524 84 101 5.0 13.0 0.00 0.00 0.00 67 1013.5
20260905232024 84 115 5.0 13.0 0.00 0.00 0.00 67 1013.4
20260905231528 84 81 6.0 12.0 0.00 0.00 0.00 66 1013.3
20260905231025 84 62 5.0 12.0 0.00 0.00 0.00 66 1013.3
20260905230525 84 50 5.0 14.0 0.00 0.00 0.00 65 1013.3
20260905230026 84 78 7.0 14.0 0.00 0.00 0.00 65 1013.3
20260905225524 84 42 4.0 12.0 0.00 0.00 0.00 64 1013.2
20260905225023 84 93 5.0 12.0 0.00 0.00 0.00 64 1013.2
20260905224523 84 32 5.0 14.0 0.00 0.00 0.00 64 1013.2
20260905224023 85 56 3.0 14.0 0.00 0.00 0.00 63 1013.2
20260905223522 85 88 4.0 14.0 0.00 0.00 0.00 63 1013.1
20260905223022 85 88 5.0 13.0 0.00 0.00 0.00 63 1013.2
20260905222525 85 107 4.0 10.0 0.00 0.00 0.00 66 1013.1
20260905222022 84 115 5.0 14.0 0.00 0.00 0.00 66 1013.1
20260905221520 84 88 5.0 14.0 0.00 0.00 0.00 66 1013.1
20260905221020 84 83 8.0 14.0 0.00 0.00 0.00 66 1013.1
20260905220519 84 76 7.0 14.0 0.00 0.00 0.00 66 1013.2
20260905220018 84 51 7.0 15.0 0.00 0.00 0.00 66 1013.2
20260905215519 84 123 9.0 15.0 0.00 0.00 0.00 66 1013.3
20260905215018 84 91 7.0 14.0 0.00 0.00 0.00 66 1013.3
20260905214517 84 57 7.0 16.0 0.00 0.00 0.00 66 1013.4
20260905214016 84 97 8.0 14.0 0.00 0.00 0.00 66 1013.5
20260905213520 84 86 8.0 14.0 0.00 0.00 0.00 66 1013.5
20260905213018 84 96 8.0 16.0 0.00 0.00 0.00 65 1013.6
20260905212515 84 101 9.0 16.0 0.00 0.00 0.00 66 1013.7
20260905212014 84 150 8.0 16.0 0.00 0.00 0.00 66 1013.7
20260905211516 84 71 8.0 13.0 0.00 0.00 0.00 67 1013.8
20260905211014 83 84 5.0 14.0 0.00 0.00 0.00 67 1013.8
20260905210514 83 82 9.0 15.0 0.00 0.00 0.00 67 1013.9
20260905210017 83 81 6.0 18.0 0.00 0.00 0.00 68 1014.1
20260905205514 83 73 8.0 18.0 0.00 0.00 0.00 67 1014.0
20260905205015 83 61 7.0 15.0 0.00 0.00 0.00 67 1014.0
20260905204512 82 88 6.0 16.0 0.00 0.00 0.00 67 1014.0
20260905204013 83 83 9.0 18.0 0.00 0.00 0.00 67 1014.2
20260905203512 83 56 10.0 18.0 0.00 0.00 0.00 66 1014.3
20260905203012 83 74 9.0 13.0 0.00 0.00 0.00 67 1014.3
20260905202511 82 63 7.0 18.0 0.00 0.00 0.00 68 1014.3
20260905202013 82 157 10.0 19.0 0.00 0.00 0.00 69 1014.4
20260905201512 82 100 11.0 19.0 0.00 0.00 0.00 69 1014.7
20260905201011 81 105 10.0 19.0 0.00 0.00 0.00 69 1014.7
20260905200511 82 77 10.0 17.0 0.00 0.00 0.00 69 1014.9
20260905200010 82 97 7.0 18.0 0.00 0.00 0.00 69 1015.0
20260905195511 81 112 11.0 18.0 0.00 0.00 0.00 70 1015.0
20260905195011 81 94 9.0 17.0 0.00 0.00 0.00 70 1014.9
20260905194510 81 85 11.0 20.0 0.00 0.00 0.00 69 1014.9
20260905194010 81 40 7.0 15.0 0.00 0.00 0.00 70 1015.2
20260905193509 81 78 8.0 19.0 0.00 0.00 0.00 70 1015.2
20260905193009 80 79 11.0 19.0 0.00 0.00 0.00 71 1015.3
20260905192509 80 91 10.0 19.0 0.00 0.00 0.00 71 1015.4
20260905192009 80 77 8.0 17.0 0.00 0.00 0.00 71 1015.5
20260905191509 80 61 8.0 16.0 0.00 0.00 0.00 71 1015.4
20260905191009 80 61 9.0 18.0 0.00 0.00 0.00 72 1015.5
20260905190508 79 69 9.0 21.0 0.00 0.00 0.00 72 1015.7
20260905190009 78 36 9.0 21.0 0.00 0.00 0.00 73 1015.8
20260905185507 79 54 8.0 18.0 0.00 0.00 0.00 73 1016.0
20260905185010 78 59 9.0 18.0 0.00 0.00 0.00 73 1016.2
20260905184510 78 15 8.0 17.0 0.00 0.00 0.00 73 1016.2
20260905184006 78 59 7.0 17.0 0.00 0.00 0.00 73 1016.3
20260905183506 78 110 8.0 17.0 0.00 0.00 0.00 73 1016.3
20260905183007 78 42 10.0 22.0 0.00 0.00 0.00 72 1016.4
20260905182506 79 13 9.0 22.0 0.00 0.00 0.00 72 1016.4
20260905182008 79 29 9.0 18.0 0.00 0.00 0.00 72 1016.4
20260905181505 80 13 11.0 18.0 0.00 0.00 0.00 72 1016.3
20260905181007 80 30 11.0 18.0 0.00 0.00 0.00 70 1016.3
20260905180506 82 344 6.0 17.0 0.00 0.00 0.00 70 1016.3
20260905180004 82 34 8.0 19.0 0.00 0.00 0.00 68 1016.4
20260905175504 83 5 8.0 19.0 0.00 0.00 0.00 67 1016.3
20260905175003 84 30 8.0 12.0 0.00 0.00 0.00 66 1016.4
20260905174508 84 327 5.0 11.0 0.00 0.00 0.00 67 1016.5
20260905174002 84 115 3.0 10.0 0.00 0.00 0.00 66 1016.6
20260905173501 84 27 3.0 10.0 0.00 0.00 0.00 66 1016.4
20260905173101 84 337 4.0 10.0 0.00 0.00 0.00 67 1016.6
20260905172559 84 17 2.0 9.0 0.00 0.00 0.00 68 1016.5
20260905172059 84 321 3.0 8.0 0.00 0.00 0.00 67 1016.4
20260905171633 84 271 3.0 6.0 0.00 0.00 0.00 67 1016.3
20260905171057 83 303 0.0 3.0 0.00 0.00 0.00 68 1016.2
20260905170555 83 303 1.0 3.0 0.00 0.00 0.00 69 1016.1
20260905165552 82 162 0.0 4.0 0.00 0.00 0.00 70 1016.2
20260905165051 82 159 1.0 5.0 0.00 0.00 0.00 69 1016.1
20260905164551 81 205 2.0 7.0 0.00 0.00 0.00 70 1016.1
20260905164047 81 180 2.0 7.0 0.00 0.00 0.00 72 1015.9
20260905163546 80 178 2.0 7.0 0.00 0.00 0.00 73 1016.0
20260905163052 80 161 2.0 7.0 0.00 0.00 0.00 73 1016.0
20260905162543 79 174 3.0 11.0 0.00 0.00 0.00 74 1015.9
20260905162042 79 187 5.0 11.0 0.00 0.00 0.00 74 1015.9
20260905161540 79 185 5.0 9.0 0.00 0.00 0.00 75 1015.9
20260905161039 78 216 4.0 12.0 0.00 0.00 0.00 77 1015.9
20260905160537 77 163 5.0 13.0 0.00 0.00 0.00 78 1016.0
20260905160036 76 201 5.0 12.0 0.00 0.00 0.00 79 1016.1
20260905155534 76 168 7.0 15.0 0.00 0.00 0.00 79 1015.9
20260905155032 75 174 7.0 15.0 0.00 0.00 0.00 80 1015.8
20260905154531 75 165 6.0 15.0 0.00 0.00 0.00 80 1015.9
20260905154030 75 138 7.0 14.0 0.00 0.00 0.00 81 1015.8
20260905153529 74 116 5.0 18.0 0.00 0.00 0.00 83 1016.0
20260905153028 72 146 9.0 18.0 0.00 0.00 0.00 84 1015.8
20260905152526 71 162 9.0 16.0 0.00 0.00 0.00 85 1015.9
20260905152024 71 153 7.0 12.0 0.00 0.00 0.00 85 1015.7
20260905151524 71 161 6.0 11.0 0.00 0.00 0.00 85 1015.8
20260905151022 70 135 4.0 13.0 0.00 0.00 0.00 86 1015.7
20260905150525 70 126 6.0 13.0 0.00 0.00 0.00 86 1015.6
20260905150033 70 162 3.0 14.0 0.00 0.00 0.00 86 1015.6
20260905145525 70 168 5.0 16.0 0.00 0.00 0.00 86 1015.7
20260905145021 70 76 6.0 16.0 0.00 0.00 0.00 86 1015.7
20260905144519 70 193 6.0 14.0 0.00 0.00 0.00 86 1015.8
20260905144020 70 163 8.0 16.0 0.00 0.00 0.00 87 1015.9
20260905143519 70 150 6.0 16.0 0.00 0.00 0.00 88 1015.9
20260905143018 69 145 4.0 12.0 0.00 0.00 0.00 88 1016.0
20260905142516 69 123 5.0 12.0 0.00 0.00 0.00 89 1015.9
20260905142020 68 154 4.0 11.0 0.00 0.00 0.00 90 1015.9
20260905141516 68 148 5.0 11.0 0.00 0.00 0.00 90 1015.8
20260905141015 68 173 3.0 11.0 0.00 0.00 0.00 91 1015.8
20260905140516 68 175 4.0 10.0 0.00 0.00 0.00 92 1015.7
20260905140015 67 136 3.0 10.0 0.00 0.00 0.00 93 1015.8
20260905135513 67 145 3.0 7.0 0.00 0.00 0.00 93 1015.8
20260905135014 66 137 3.0 7.0 0.00 0.00 0.00 94 1015.7
20260905134514 66 164 3.0 9.0 0.00 0.00 0.00 94 1015.6
20260905134010 66 140 4.0 9.0 0.00 0.00 0.00 94 1015.7
20260905133510 66 153 3.0 9.0 0.00 0.00 0.00 94 1015.7
20260905133009 66 100 4.0 8.0 0.00 0.00 0.00 94 1015.8
20260905132509 66 147 4.0 8.0 0.00 0.00 0.00 94 1015.8
20260905132007 66 137 2.0 8.0 0.00 0.00 0.00 94 1015.7
20260905131514 66 135 2.0 4.0 0.00 0.00 0.00 95 1015.7
20260905131006 66 86 1.0 8.0 0.00 0.00 0.00 95 1015.9
20260905130506 66 97 3.0 8.0 0.00 0.00 0.00 95 1015.7
20260905130004 65 78 1.0 6.0 0.00 0.00 0.00 95 1015.8
20260905125504 65 119 2.0 6.0 0.00 0.00 0.00 95 1016.1
20260905125001 65 69 1.0 6.0 0.00 0.00 0.00 95 1016.0
20260905124601 65 91 1.0 7.0 0.00 0.00 0.00 95 1015.7
20260905124059 65 154 3.0 8.0 0.00 0.00 0.00 95 1015.4
20260905124001 65 136 2.0 8.0 0.00 0.00 0.00 95 1015.4
20260905123559 65 149 2.0 8.0 0.00 0.00 0.00 95 1015.3
20260905123102 65 137 2.0 11.0 0.00 0.00 0.00 95 1015.2
20260905122559 65 122 5.0 11.0 0.00 0.00 0.00 95 1015.2
20260905122100 65 81 4.0 9.0 0.00 0.00 0.00 95 1015.2
20260905121559 65 93 3.0 9.0 0.00 0.00 0.00 95 1015.2
20260905121058 65 44 3.0 8.0 0.00 0.00 0.00 95 1015.2
20260905120557 65 117 2.0 10.0 0.00 0.00 0.00 95 1015.2
20260905120058 65 72 4.0 10.0 0.00 0.00 0.00 95 1015.2
20260905115557 65 95 4.0 9.0 0.00 0.00 0.00 95 1015.1
20260905115057 65 28 3.0 9.0 0.00 0.00 0.00 95 1015.0
20260905114607 65 115 4.0 12.0 0.00 0.00 0.00 95 1014.9
20260905114057 65 53 5.0 12.0 0.00 0.00 0.00 95 1015.0
20260905113556 65 80 5.0 10.0 0.00 0.00 0.00 95 1015.0
20260905113058 65 87 3.0 10.0 0.00 0.00 0.00 95 1015.1
20260905112556 65 104 5.0 10.0 0.00 0.00 0.00 95 1015.1
20260905112055 65 138 3.0 9.0 0.00 0.00 0.00 95 1015.1
20260905111625 65 114 3.0 10.0 0.00 0.00 0.00 95 1015.0
20260905111055 65 109 3.0 10.0 0.00 0.00 0.00 95 1014.9
20260905110554 65 153 3.0 10.0 0.00 0.00 0.00 95 1015.1
20260905110106 65 159 3.0 9.0 0.00 0.00 0.00 95 1015.0
20260905105555 65 153 3.0 9.0 0.00 0.00 0.00 95 1015.0
20260905105055 65 159 2.0 10.0 0.00 0.00 0.00 95 1015.1
20260905104615 65 128 3.0 11.0 0.00 0.00 0.00 95 1015.1
20260905104056 65 175 4.0 11.0 0.00 0.00 0.00 95 1014.9
20260905103554 64 132 2.0 9.0 0.00 0.00 0.00 95 1015.0
20260905103054 64 163 1.0 5.0 0.00 0.00 0.00 95 1015.0
20260905102553 64 140 2.0 4.0 0.00 0.00 0.00 95 1015.2
20260905102053 64 154 0.0 2.0 0.00 0.00 0.00 95 1015.2
20260905101554 64 184 0.0 0.0 0.00 0.00 0.00 95 1015.2
20260905101052 64 180 0.0 0.0 0.00 0.00 0.00 94 1015.0
20260905100553 64 180 0.0 3.0 0.00 0.00 0.00 94 1015.0
20260905100053 64 180 0.0 3.0 0.00 0.00 0.00 94 1014.8
20260905095552 64 180 1.0 3.0 0.00 0.00 0.00 94 1014.8
20260905095052 64 112 1.0 3.0 0.00 0.00 0.00 94 1014.4
20260905094704 64 164 0.0 2.0 0.00 0.00 0.00 94 1014.4
20260905094050 64 164 0.0 2.0 0.00 0.00 0.00 94 1014.5
20260905093550 64 164 0.0 3.0 0.00 0.00 0.00 94 1014.4
20260905093057 64 164 1.0 3.0 0.00 0.00 0.00 94 1014.3
20260905092551 65 107 0.0 4.0 0.00 0.00 0.00 94 1014.1
20260905092049 65 107 1.0 5.0 0.00 0.00 0.00 94 1014.0
20260905091555 65 94 2.0 8.0 0.00 0.00 0.00 94 1013.8
20260905091048 65 104 3.0 8.0 0.00 0.00 0.00 94 1013.9
20260905090548 65 102 1.0 8.0 0.00 0.00 0.00 94 1013.9
20260905090048 65 91 3.0 8.0 0.00 0.00 0.00 93 1013.8
20260905085548 65 111 2.0 8.0 0.00 0.00 0.00 93 1013.9
20260905085047 65 118 2.0 8.0 0.00 0.00 0.00 93 1013.8
20260905084558 65 80 2.0 7.0 0.00 0.00 0.00 93 1013.9
20260905084048 65 98 4.0 8.0 0.00 0.00 0.00 93 1014.1
20260905083545 65 84 3.0 8.0 0.00 0.00 0.00 93 1014.0
20260905083045 65 103 2.0 7.0 0.00 0.00 0.00 93 1014.1
20260905082545 65 107 2.0 8.0 0.00 0.00 0.00 93 1014.2
20260905082043 66 80 3.0 8.0 0.00 0.00 0.00 93 1014.3
20260905081543 66 90 2.0 8.0 0.00 0.00 0.00 93 1014.2
20260905081042 66 76 1.0 6.0 0.00 0.00 0.00 92 1014.3
20260905080541 66 133 1.0 6.0 0.00 0.00 0.00 92 1014.4
20260905080039 66 90 2.0 6.0 0.00 0.00 0.00 92 1014.5
20260905075538 66 136 2.0 5.0 0.00 0.00 0.00 92 1014.9
20260905075042 67 141 2.0 7.0 0.00 0.00 0.00 92 1014.9
20260905074538 67 99 1.0 8.0 0.00 0.00 0.00 92 1015.0
20260905074037 67 207 2.0 9.0 0.00 0.00 0.00 92 1014.8
20260905073536 67 94 3.0 9.0 0.00 0.00 0.00 92 1014.7
20260905073035 67 132 2.0 9.0 0.00 0.00 0.00 92 1014.6
20260905072534 67 94 3.0 8.0 0.00 0.00 0.00 92 1014.6
20260905072034 67 74 2.0 9.0 0.00 0.00 0.00 92 1014.7
20260905071537 67 70 4.0 9.0 0.00 0.00 0.00 92 1014.8
20260905071034 67 82 4.0 8.0 0.00 0.00 0.00 92 1014.8
20260905070533 67 111 3.0 7.0 0.00 0.00 0.00 91 1014.8
20260905070033 68 140 1.0 7.0 0.00 0.00 0.00 91 1015.0
20260905065534 68 54 2.0 5.0 0.00 0.00 0.00 91 1015.1
20260905065032 68 91 3.0 7.0 0.00 0.00 0.00 91 1015.1
20260905064532 68 173 3.0 7.0 0.00 0.00 0.00 91 1015.2
20260905064031 68 120 2.0 6.0 0.00 0.00 0.00 91 1015.1
20260905063530 68 93 2.0 8.0 0.00 0.00 0.00 91 1015.1
20260905063031 68 68 2.0 8.0 0.00 0.00 0.00 91 1015.0
20260905062531 68 85 4.0 8.0 0.00 0.00 0.00 90 1015.0
20260905062030 68 129 1.0 6.0 0.00 0.00 0.00 90 1015.2
20260905061544 68 88 1.0 6.0 0.00 0.00 0.00 90 1015.1
20260905061028 68 105 1.0 6.0 0.00 0.00 0.00 90 1015.1
20260905060528 68 138 2.0 5.0 0.00 0.00 0.00 90 1015.3
20260905060047 69 149 3.0 6.0 0.00 0.00 0.00 89 1015.3
20260905055527 69 111 2.0 6.0 0.00 0.00 0.00 89 1015.2
20260905055026 69 165 3.0 8.0 0.00 0.00 0.00 89 1015.2
20260905054534 69 56 3.0 10.0 0.00 0.00 0.00 89 1014.9
20260905054024 69 128 5.0 11.0 0.00 0.00 0.00 89 1014.7
20260905053524 69 116 4.0 11.0 0.00 0.00 0.00 88 1014.7
20260905053022 69 84 3.0 10.0 0.00 0.00 0.00 88 1014.7
20260905052521 70 74 4.0 9.0 0.00 0.00 0.00 88 1014.7
20260905052021 70 355 2.0 9.0 0.00 0.00 0.00 88 1014.8
20260905051530 70 69 5.0 10.0 0.00 0.00 0.00 88 1014.6
20260905051022 70 88 5.0 10.0 0.00 0.00 0.00 87 1014.6
20260905050518 70 79 2.0 9.0 0.00 0.00 0.00 87 1014.7
20260905050017 70 67 3.0 10.0 0.00 0.00 0.00 87 1014.6
20260905045521 70 105 4.0 11.0 0.00 0.00 0.00 87 1014.5
20260905045016 70 109 5.0 11.0 0.00 0.00 0.00 87 1014.6
20260905044516 70 126 5.0 10.0 0.00 0.00 0.00 87 1014.6
20260905044014 71 73 3.0 8.0 0.00 0.00 0.00 86 1014.8
20260905043518 71 79 3.0 9.0 0.00 0.00 0.00 86 1014.7
20260905043018 71 100 3.0 10.0 0.00 0.00 0.00 86 1014.9
20260905042514 71 94 4.0 10.0 0.00 0.00 0.00 86 1014.8
20260905042014 71 69 4.0 9.0 0.00 0.00 0.00 85 1014.8
20260905041514 72 82 4.0 9.0 0.00 0.00 0.00 85 1014.8
20260905041016 72 84 2.0 8.0 0.00 0.00 0.00 85 1014.8
20260905040514 72 96 3.0 9.0 0.00 0.00 0.00 85 1014.8